• Join FlightAware (Why Join?)
  • Login
  • US Flag GB Flag 
20:52 EDT


 

Airport Tracker/Info


-or-


 

Live Flight TrackerFlight Track Log ✈ UCA597 ✈ 22-Mar-2014 ✈ KIAD - KBGM

Flight Track Log - Related Links

Times and Time Zones

All times are in EDT time to prevent confusion due to time zone crossing. See the UCA597 flight status page for this flight to view local times or setup timezone preferences in your user account.

Time Position Orientation Groundspeed Altitude Reporting Facility
EDT Latitude Longitude Course Direction KTS MPH feet Rate Location/Type
18:35 38.9500 -77.5189 North 131 151 2,300  Level Washington Center
18:36 38.9725 -77.5461 317° Northwest 143 165 4,200 1,560 Climbing Washington Center
18:37 39.0103 -77.5417 North 180 207 5,400 1,440 Climbing Washington Center
18:38 39.0644 -77.5297 10° North 187 215 7,100 1,680 Climbing Washington Center
18:39 39.1167 -77.5206 North 187 215 8,900 1,980 Climbing Washington Center
18:40 39.1689 -77.5139 North 187 215 11,100 1,920 Climbing Washington Center
18:41 39.3510 -77.4500 North  Level FlightAware Approximate
18:41 39.2150 -77.5097 North 177 204 12,800  Level Washington Center
18:42 39.2608 -77.5056 North 172 198 14,300 1,500 Climbing Washington Center
18:43 39.3069 -77.4986 North 172 198 15,800 1,020 Climbing Washington Center
18:44 39.3611 -77.4919 North 172 198 16,400 780 Climbing Washington Center
18:45 39.4239 -77.4831 North 193 222 17,400 780 Climbing Washington Center
18:48 39.5625 -77.4689 North 226 260 19,000 480 Climbing New York Center
18:49 39.6364 -77.4542 North 251 289 19,000  Level New York Center
18:50 39.7117 -77.4506 North 258 297 19,000  Level New York Center
18:51 39.7864 -77.4197 18° North 270 311 19,000  Level New York Center
18:52 39.8594 -77.3808 22° Northeast 275 316 19,000  Level New York Center
18:53 39.9303 -77.3442 22° Northeast 280 322 19,000  Level New York Center
18:54 40.0119 -77.3003 22° Northeast 280 322 19,000  Level New York Center
18:55 40.0808 -77.2633 22° Northeast 280 322 19,000  Level New York Center
18:56 40.1622 -77.2219 21° North 280 322 19,000  Level New York Center
18:57 40.2289 -77.1875 22° Northeast 280 322 19,000  Level New York Center
18:58 40.3125 -77.1433 22° Northeast 280 322 19,000  Level New York Center
18:59 40.3811 -77.1089 21° North 280 322 19,000  Level New York Center
19:00 40.4625 -77.0644 23° Northeast 285 328 19,000  Level New York Center
19:01 40.5333 -77.0272 22° Northeast 285 328 19,000 -300 Level New York Center
19:02 40.6169 -76.9828 22° Northeast 290 334 18,500 -600 Descending New York Center
19:03 40.6900 -76.9431 22° Northeast 301 346 17,900 -720 Descending New York Center
19:04 40.7778 -76.8961 22° Northeast 301 346 17,100 -480 Descending New York Center
19:05 40.8486 -76.8586 22° Northeast 301 346 17,000 -60 Descending New York Center
19:06 40.9322 -76.8139 22° Northeast 301 346 17,000  Level New York Center
19:07 41.0072 -76.7708 23° Northeast 296 341 17,000  Level New York Center
19:08 41.0822 -76.7336 21° North 296 341 17,000  Level New York Center
19:09 41.1569 -76.6933 22° Northeast 291 335 17,000  Level New York Center
19:10 41.2300 -76.6500 24° Northeast 291 335 17,000  Level New York Center
19:11 41.2986 -76.6117 23° Northeast 286 329 17,000  Level New York Center
19:12 41.3736 -76.5711 22° Northeast 286 329 17,000  Level New York Center
19:13 41.4589 -76.5261 22° Northeast 286 329 17,000 -360 Level New York Center
19:14 41.5358 -76.4856 22° Northeast 286 329 16,300 -900 Descending New York Center
19:15 41.6153 -76.4394 23° Northeast 298 343 15,300 -960 Descending New York Center
19:16 41.6878 -76.4011 22° Northeast 298 343 14,400 -3,180 Descending New York Center
19:17 41.7733 -76.3528 23° Northeast 298 343 9,000 -2,700 Descending New York Center
19:18 41.8461 -76.3117 23° Northeast 293 337 9,000  Level New York Center
19:19 41.9167 -76.2700 24° Northeast 277 319 9,000  Level New York Center
19:20 41.9786 -76.2389 20° North 266 306 9,000  Level New York Center
19:21 42.0289 -76.1844 39° Northeast 241 277 9,000  Level New York Center
19:22 42.0836 -76.1247 39° Northeast 235 270 9,000  Level New York Center
19:23 42.1222 -76.0581 52° Northeast 220 253 9,000  Level New York Center
19:24 42.1478 -75.9986 60° Northeast 202 232 9,000  Level New York Center
19:25 42.1800 -75.9731 30° Northeast 169 194 9,000  Level New York Center
19:26 42.2053 -75.9161 59° Northeast 169 194 9,000  Level New York Center
19:27 42.2325 -75.8681 53° Northeast 169 194 9,000  Level New York Center
19:28 42.2614 -75.8225 49° Northeast 169 194 9,000  Level New York Center
19:29 42.2883 -75.7742 53° Northeast 169 194 9,000  Level New York Center